period_start,C,m1,H,J0,J1,J2,J3,J4,J5,JA,JB,JC,JD,JJ,JK,JN,#
2018-04-28 00:01:13,0.12,2.55,0.00,28.20,31.27,33.91,13.59,46.68,1006.39,2008.39,2514.55,2418.70,2764.85,600.29,579.99,21.58,0000 0000 0000 0000 000000
2018-04-28 00:06:14,0.08,2.55,0.00,28.22,31.27,33.91,13.54,46.65,1006.38,2008.22,2513.00,2417.58,2763.56,599.87,579.75,21.63,0000 0000 0000 0000 000000
2018-04-28 00:11:15,0.10,2.56,0.00,28.23,31.28,33.93,13.49,46.63,1006.39,2008.25,2511.53,2416.48,2762.27,599.75,579.55,21.68,0000 0000 0000 0000 000000
2018-04-28 00:16:17,0.09,2.56,0.00,28.25,31.30,33.93,13.54,46.62,1006.45,2008.07,2509.92,2415.37,2760.90,600.07,579.87,21.73,0000 0000 0000 0000 000000
2018-04-28 00:21:19,0.10,2.57,0.00,28.28,31.30,33.94,13.49,46.63,1006.44,2008.04,2508.28,2414.23,2759.52,599.98,579.72,21.78,0000 0000 0000 0000 000000
2018-04-28 00:26:20,0.10,2.58,0.00,28.29,31.30,33.95,13.54,46.70,1006.46,2008.04,2506.55,2413.05,2758.16,600.18,579.90,21.83,0000 0000 0000 0000 000000
2018-04-28 00:31:21,0.09,2.58,0.00,28.31,31.32,33.96,13.54,46.70,1006.50,2008.06,2505.14,2411.99,2756.88,600.21,579.85,21.88,0000 0000 0000 0000 000000
2018-04-28 00:36:22,0.11,2.59,0.00,28.33,31.32,33.96,13.43,46.72,1006.59,2008.02,2503.58,2410.89,2755.57,599.69,579.48,21.93,0000 0000 0000 0000 000000
2018-04-28 00:41:23,0.10,2.59,0.00,28.35,31.34,33.97,13.54,46.73,1006.76,2008.03,2502.02,2409.77,2754.34,600.03,579.81,21.98,0000 0000 0000 0000 000000
2018-04-28 00:46:24,0.10,2.60,0.00,28.37,31.35,33.99,13.61,46.65,1006.81,2008.01,2500.53,2408.67,2752.98,600.19,579.96,22.03,0000 0000 0000 0000 000000
2018-04-28 00:51:26,0.12,2.60,0.00,28.39,31.35,34.00,13.52,46.64,1006.83,2008.00,2498.78,2407.49,2751.58,599.80,579.79,22.08,0000 0000 0000 0000 000000
2018-04-28 00:56:27,0.09,2.61,0.00,28.45,31.37,34.02,13.42,46.61,1006.84,2008.00,2497.26,2406.34,2750.40,599.58,579.24,22.13,0000 0000 0000 0000 000000
2018-04-28 01:01:29,0.09,2.61,0.00,28.48,31.37,34.02,13.49,46.67,1006.85,2008.00,2495.87,2405.27,2749.12,599.85,579.43,22.18,0000 0000 0000 0000 000000
2018-04-28 01:06:30,0.10,2.62,0.00,28.50,31.39,34.04,13.48,46.70,1006.85,2008.00,2494.57,2404.13,2747.78,599.92,579.59,22.23,0000 0000 0000 0000 000000
2018-04-28 01:11:31,0.11,2.62,0.00,28.53,31.41,34.06,13.52,46.78,1006.85,2008.00,2492.87,2402.95,2746.40,600.13,579.61,22.28,0000 0000 0000 0000 000000
2018-04-28 01:16:33,0.09,2.63,0.00,28.56,31.42,34.08,13.54,46.77,1006.85,2008.00,2491.45,2401.88,2745.10,599.95,579.28,22.33,0000 0000 0000 0000 000000
2018-04-28 01:21:34,0.10,2.63,0.00,28.61,31.45,34.08,13.51,46.66,1006.85,2008.00,2490.08,2400.83,2743.85,599.87,579.20,22.38,0000 0000 0000 0000 000000
2018-04-28 01:26:35,0.11,2.64,0.00,28.65,31.47,34.11,13.45,46.68,1006.86,2008.00,2488.63,2399.74,2742.58,599.97,579.17,22.43,0000 0000 0000 0000 000000
2018-04-28 01:31:36,0.10,2.64,0.00,28.70,31.49,34.13,13.54,46.74,1006.86,2007.97,2487.11,2398.46,2741.15,600.02,579.19,22.48,0000 0000 0000 0000 000000
2018-04-28 01:36:37,0.11,2.65,0.00,28.74,31.51,34.15,13.49,46.78,1006.85,2007.87,2485.34,2397.28,2739.67,600.03,579.12,22.53,0000 0000 0000 0000 000000
2018-04-28 01:41:38,0.06,2.66,0.00,28.78,31.54,34.17,13.56,46.75,1006.86,2007.69,2483.89,2396.09,2738.39,600.54,579.50,22.58,0000 0000 0000 0000 000000
2018-04-28 01:46:40,0.08,2.66,0.00,28.82,31.57,34.20,13.47,46.79,1006.87,2007.17,2482.29,2394.78,2736.89,599.95,578.86,22.63,0000 0000 0000 0000 000000
2018-04-28 01:51:41,0.11,2.66,0.00,28.87,31.60,34.22,13.51,46.78,1006.87,2007.03,2480.45,2393.51,2735.29,600.19,579.00,22.68,0000 0000 0000 0000 000000
2018-04-28 01:56:42,0.13,2.67,0.00,28.91,31.63,34.25,13.49,46.74,1006.88,2007.02,2478.55,2392.13,2733.68,599.97,578.74,22.73,0000 0000 0000 0000 000000
2018-04-28 02:01:43,0.15,2.68,0.00,28.99,31.66,34.29,13.47,46.73,1006.87,2007.00,2476.50,2390.57,2731.90,600.06,578.74,22.78,0000 0000 0000 0000 000000
2018-04-28 02:06:45,0.13,2.68,0.00,29.03,31.70,34.32,13.49,46.78,1006.90,2006.99,2474.46,2389.06,2730.19,600.05,578.56,22.83,0000 0000 0000 0000 000000
2018-04-28 02:11:46,0.15,2.69,0.00,29.08,31.74,34.34,13.49,46.92,1007.06,2006.94,2472.31,2387.52,2728.41,599.91,578.48,22.88,0000 0000 0000 0000 000000
2018-04-28 02:16:47,0.20,2.70,0.00,29.14,31.77,34.38,13.49,46.82,1007.21,2006.85,2469.35,2385.61,2726.12,600.30,578.72,22.93,0000 0000 0000 0000 000000
2018-04-28 02:21:49,0.15,2.71,0.00,29.18,31.81,34.41,13.48,46.77,1007.32,2006.51,2466.42,2383.51,2723.72,599.63,577.94,22.98,0000 0000 0000 0000 000000
2018-04-28 02:26:50,0.18,2.72,0.00,29.23,31.84,34.44,13.43,46.77,1007.34,2006.11,2463.42,2381.40,2721.31,599.97,578.29,23.03,0000 0000 0000 0000 000000
2018-04-28 02:31:51,0.15,2.73,0.00,29.29,31.88,34.48,13.46,46.82,1007.34,2006.00,2460.86,2379.55,2719.14,599.80,578.12,23.08,0000 0000 0000 0000 000000
2018-04-28 02:36:52,0.12,2.73,0.00,29.32,31.91,34.51,13.41,46.76,1007.34,2006.00,2459.04,2378.28,2717.52,599.88,578.11,23.13,0000 0000 0000 0000 000000
2018-04-28 02:41:54,0.06,2.74,0.00,29.35,31.95,34.55,13.41,46.81,1007.39,2005.98,2458.06,2377.13,2716.36,599.84,578.13,23.18,0000 0000 0000 0000 000000
2018-04-28 02:46:56,0.04,2.74,0.00,29.37,31.98,34.59,13.45,46.79,1007.51,2005.71,2457.40,2376.31,2715.52,600.17,578.52,23.23,0000 0000 0000 0000 000000
2018-04-28 02:51:57,0.03,2.74,0.00,29.42,32.01,34.63,13.46,46.73,1007.80,2005.15,2456.10,2375.28,2714.32,600.16,578.46,23.28,0000 0000 0000 0000 000000
2018-04-28 02:56:58,0.10,2.75,0.00,29.47,32.03,34.66,13.43,46.61,1007.83,2005.00,2454.61,2374.14,2712.98,600.10,578.42,23.33,0000 0000 0000 0000 000000
2018-04-28 03:02:00,0.09,2.75,0.00,29.51,32.06,34.69,13.42,46.63,1007.84,2005.00,2453.18,2373.14,2711.89,599.82,577.98,23.38,0000 0000 0000 0000 000000
2018-04-28 03:07:01,0.09,2.76,0.00,29.53,32.08,34.73,13.40,46.61,1007.86,2004.98,2451.94,2372.25,2710.72,599.92,577.97,23.43,0000 0000 0000 0000 000000
2018-04-28 03:12:02,0.09,2.76,0.00,29.56,32.10,34.78,13.43,46.61,1008.02,2004.91,2450.42,2371.23,2709.45,599.93,578.12,23.48,0000 0000 0000 0000 000000
2018-04-28 03:17:03,0.06,2.77,0.00,29.58,32.12,34.81,13.48,46.62,1008.26,2004.72,2449.00,2370.25,2708.29,599.83,578.19,23.53,0000 0000 0000 0000 000000
2018-04-28 03:22:04,0.04,2.77,0.00,29.60,32.14,34.84,13.47,46.60,1008.31,2004.15,2447.69,2369.22,2707.07,600.26,578.44,23.58,0000 0000 0000 0000 000000
2018-04-28 03:27:06,0.09,2.77,0.00,29.63,32.16,34.87,13.41,46.62,1008.31,2004.03,2446.31,2368.28,2705.89,600.06,578.35,23.63,0000 0000 0000 0000 000000
2018-04-28 03:32:07,0.11,2.78,0.00,29.67,32.19,34.90,13.49,46.63,1008.33,2004.00,2444.79,2367.21,2704.61,600.24,578.39,23.68,0000 0000 0000 0000 000000
2018-04-28 03:37:08,0.09,2.78,0.00,29.69,32.21,34.93,13.49,46.67,1008.37,2004.00,2443.41,2366.37,2703.44,599.97,578.11,23.73,0000 0000 0000 0000 000000
2018-04-28 03:42:09,0.10,2.79,0.00,29.71,32.22,34.97,13.49,46.52,1008.55,2004.00,2441.83,2365.32,2702.14,600.08,578.28,23.78,0000 0000 0000 0000 000000
2018-04-28 03:47:11,0.10,2.79,0.00,29.73,32.25,34.99,13.46,46.52,1008.67,2003.99,2440.36,2364.21,2700.83,599.81,578.09,23.84,0000 0000 0000 0000 000000
2018-04-28 03:52:12,0.11,2.80,0.00,29.73,32.27,35.02,13.57,46.57,1008.77,2003.97,2438.81,2363.15,2699.57,600.38,578.65,23.89,0000 0000 0000 0000 000000
2018-04-28 03:57:13,0.09,2.80,0.00,29.76,32.30,35.04,13.45,46.52,1008.80,2003.89,2437.25,2362.07,2698.26,599.88,578.15,23.94,0000 0000 0000 0000 000000
2018-04-28 04:02:15,0.05,2.81,0.00,29.77,32.31,35.08,13.49,46.64,1008.80,2003.50,2435.77,2361.01,2696.96,600.35,578.49,23.99,0000 0000 0000 0000 000000
2018-04-28 04:07:16,0.10,2.81,0.00,29.79,32.34,35.10,13.40,46.44,1008.81,2003.23,2434.18,2359.84,2695.66,599.83,578.09,24.04,0000 0000 0000 0000 000000
2018-04-28 04:12:17,0.15,2.82,0.00,29.81,32.36,35.13,13.51,46.48,1008.82,2003.07,2432.12,2358.30,2693.82,600.26,578.43,24.09,0000 0000 0000 0000 000000
2018-04-28 04:17:18,0.17,2.83,0.00,29.81,32.38,35.15,13.44,46.50,1008.85,2003.00,2429.61,2356.31,2691.55,599.69,577.96,24.14,0000 0000 0000 0000 000000
2018-04-28 04:22:19,0.10,2.83,0.00,29.83,32.40,35.18,13.35,46.60,1008.90,2003.00,2428.08,2355.06,2690.08,599.86,578.06,24.19,0000 0000 0000 0000 000000
2018-04-28 04:27:21,0.10,2.84,0.00,29.83,32.42,35.19,13.50,46.75,1008.85,2002.99,2426.78,2354.00,2688.88,599.88,578.05,24.24,0000 0000 0000 0000 000000
2018-04-28 04:32:22,0.09,2.84,0.00,29.83,32.45,35.21,13.41,46.68,1009.03,2002.95,2425.38,2352.99,2687.77,599.95,578.21,24.29,0000 0000 0000 0000 000000
2018-04-28 04:37:23,0.09,2.85,0.00,29.82,32.47,35.24,13.42,46.67,1009.23,2002.85,2424.00,2352.01,2686.61,599.73,578.21,24.34,0000 0000 0000 0000 000000
2018-04-28 04:42:24,0.07,2.85,0.00,29.84,32.49,35.26,13.51,46.58,1009.29,2002.66,2422.58,2351.03,2685.46,600.12,578.44,24.39,0000 0000 0000 0000 000000
2018-04-28 04:47:25,0.04,2.86,0.00,29.84,32.50,35.27,13.47,46.49,1009.29,2002.19,2421.12,2349.98,2684.16,600.43,578.74,24.44,0000 0000 0000 0000 000000
2018-04-28 04:52:27,0.09,2.86,0.00,29.84,32.52,35.29,13.49,46.63,1009.30,2002.04,2419.74,2349.01,2683.05,600.12,578.55,24.49,0000 0000 0000 0000 000000
2018-04-28 04:57:28,0.10,2.86,0.00,29.85,32.54,35.30,13.48,46.69,1009.32,2002.03,2418.35,2348.03,2681.85,599.92,578.22,24.54,0000 0000 0000 0000 000000
2018-04-28 05:02:29,0.11,2.87,0.00,29.84,32.55,35.31,13.38,46.53,1009.43,2002.03,2416.93,2347.05,2680.65,599.85,578.32,24.59,0000 0000 0000 0000 000000
2018-04-28 05:07:31,0.09,2.87,0.00,29.85,32.57,35.33,13.54,46.59,1009.65,2002.00,2415.65,2346.06,2679.51,599.90,578.47,24.64,0000 0000 0000 0000 000000
2018-04-28 05:12:32,0.09,2.88,0.00,29.87,32.59,35.34,13.41,46.50,1009.77,2002.00,2414.30,2345.11,2678.39,599.76,578.41,24.69,0000 0000 0000 0000 000000
2018-04-28 05:17:33,0.08,2.88,0.00,29.84,32.60,35.36,13.45,46.64,1009.78,2002.00,2413.26,2344.20,2677.36,599.82,578.45,24.74,0000 0000 0000 0000 000000
2018-04-28 05:22:34,0.10,2.89,0.00,29.83,32.61,35.37,13.48,46.51,1009.78,2002.00,2411.78,2343.19,2676.05,600.17,578.81,24.79,0000 0000 0000 0000 000000
2018-04-28 05:27:35,0.09,2.89,0.00,29.82,32.62,35.38,13.53,46.79,1009.78,2001.97,2410.34,2342.15,2674.87,599.99,578.76,24.84,0000 0000 0000 0000 000000
2018-04-28 05:32:37,0.09,2.90,0.00,29.82,32.63,35.39,13.56,46.74,1009.79,2001.95,2409.19,2341.22,2673.77,600.07,578.80,24.89,0000 0000 0000 0000 000000
2018-04-28 05:37:38,0.09,2.90,0.00,29.82,32.65,35.40,13.43,46.66,1009.79,2001.87,2407.81,2340.27,2672.63,599.63,578.44,24.94,0000 0000 0000 0000 000000
2018-04-28 05:42:39,0.06,2.91,0.00,29.81,32.65,35.41,13.48,46.54,1009.82,2001.57,2406.55,2339.34,2671.51,600.10,578.84,24.99,0000 0000 0000 0000 000000
2018-04-28 05:47:40,0.05,2.91,0.00,29.80,32.66,35.41,13.54,46.63,1009.96,2001.23,2405.17,2338.33,2670.31,600.28,579.21,25.04,0000 0000 0000 0000 000000
2018-04-28 05:52:42,0.10,2.91,0.00,29.80,32.67,35.42,13.43,46.60,1010.19,2001.09,2403.65,2337.28,2669.06,599.71,578.74,25.09,0000 0000 0000 0000 000000
2018-04-28 05:57:43,0.09,2.92,0.00,29.80,32.67,35.41,13.48,46.59,1010.26,2001.02,2402.23,2336.28,2667.91,600.11,579.10,25.14,0000 0000 0000 0000 000000
2018-04-28 06:02:44,0.10,2.92,0.00,29.79,32.68,35.43,13.55,46.65,1010.27,2001.02,2400.89,2335.31,2666.75,600.03,578.97,25.19,0000 0000 0000 0000 000000
2018-04-28 06:07:45,0.10,2.93,0.00,29.78,32.69,35.44,13.53,46.65,1010.27,2001.01,2399.52,2334.35,2665.58,600.19,579.23,25.24,0000 0000 0000 0000 000000
2018-04-28 06:12:46,0.20,2.93,0.00,29.77,32.70,35.43,13.46,46.86,1010.27,2001.01,2397.25,2332.64,2663.66,599.84,578.92,25.29,0000 0000 0000 0000 000000
2018-04-28 06:17:48,0.18,2.95,0.00,29.76,32.70,35.43,13.53,46.85,1010.30,2001.00,2394.51,2330.31,2661.08,599.77,578.82,25.34,0000 0000 0000 0000 000000
2018-04-28 06:22:49,0.10,2.95,0.00,29.72,32.70,35.44,13.50,46.71,1010.42,2001.00,2393.09,2329.20,2659.70,599.99,579.23,25.39,0000 0000 0000 0000 000000
2018-04-28 06:27:51,0.11,2.96,0.00,29.70,32.70,35.43,13.54,46.90,1010.65,2001.00,2391.51,2328.10,2658.39,599.81,579.25,25.44,0000 0000 0000 0000 000000
2018-04-28 06:32:52,0.09,2.96,0.00,29.70,32.70,35.42,13.51,46.73,1010.74,2001.00,2390.14,2327.16,2657.26,599.93,579.35,25.49,0000 0000 0000 0000 000000
2018-04-28 06:37:53,0.10,2.97,0.00,29.70,32.70,35.43,13.51,46.73,1010.76,2001.00,2388.87,2326.17,2656.15,599.85,579.33,25.54,0000 0000 0000 0000 000000
2018-04-28 06:42:55,0.10,2.97,0.00,29.71,32.70,35.42,13.48,46.61,1010.77,2001.00,2387.54,2325.24,2654.94,599.78,579.27,25.59,0000 0000 0000 0000 000000
2018-04-28 06:47:56,0.10,2.98,0.00,29.69,32.70,35.41,13.53,46.73,1010.78,2001.00,2386.15,2324.25,2653.75,599.90,579.43,25.64,0000 0000 0000 0000 000000
2018-04-28 06:52:57,0.11,2.98,0.00,29.69,32.70,35.41,13.59,46.64,1010.89,2001.00,2384.67,2323.29,2652.55,600.11,579.69,25.69,0000 0000 0000 0000 000000
2018-04-28 06:57:59,0.09,2.99,0.00,29.67,32.70,35.41,13.57,46.55,1011.14,2000.99,2383.30,2322.27,2651.37,600.66,580.32,25.74,0000 0000 0000 0000 000000
2018-04-28 07:03:00,0.09,2.99,0.00,29.67,32.70,35.41,13.52,46.65,1011.21,2000.99,2381.95,2321.39,2650.34,599.85,579.58,25.79,0000 0000 0000 0000 000000
2018-04-28 07:08:02,0.10,3.00,0.00,29.67,32.70,35.40,13.45,46.52,1011.23,2000.98,2380.57,2320.41,2649.15,599.55,579.37,25.84,0000 0000 0000 0000 000000
2018-04-28 07:13:03,0.10,3.01,0.00,29.67,32.70,35.40,13.48,46.63,1011.24,2000.99,2379.07,2319.42,2647.93,599.86,579.80,25.89,0000 0000 0000 0000 000000
2018-04-28 07:18:04,0.11,3.01,0.00,29.65,32.70,35.39,13.51,46.57,1011.24,2000.99,2377.64,2318.50,2646.76,599.72,579.55,25.94,0000 0000 0000 0000 000000
2018-04-28 07:23:05,0.09,3.01,0.00,29.64,32.70,35.39,13.44,46.63,1011.24,2000.99,2376.53,2317.58,2645.63,599.94,579.83,25.99,0000 0000 0000 0000 000000
2018-04-28 07:28:07,0.09,3.02,0.00,29.64,32.70,35.39,13.47,46.73,1011.24,2000.99,2375.20,2316.58,2644.57,600.31,580.19,26.04,0000 0000 0000 0000 000000
2018-04-28 07:33:08,0.09,3.03,0.00,29.60,32.69,35.39,13.51,46.76,1011.24,2000.99,2373.89,2315.58,2643.47,599.93,580.06,26.09,0000 0000 0000 0000 000000
2018-04-28 07:38:09,0.10,3.03,0.00,29.58,32.68,35.38,13.54,46.72,1011.24,2000.98,2372.65,2314.63,2642.26,600.25,580.33,26.14,0000 0000 0000 0000 000000
2018-04-28 07:43:11,0.09,3.04,0.00,29.56,32.68,35.37,13.45,46.76,1011.25,2000.98,2371.38,2313.65,2641.12,599.89,579.88,26.19,0000 0000 0000 0000 000000
2018-04-28 07:48:12,0.10,3.04,0.00,29.54,32.67,35.37,13.52,46.87,1011.25,2000.96,2369.91,2312.62,2639.90,599.71,579.85,26.24,0000 0000 0000 0000 000000
2018-04-28 07:53:13,0.11,3.04,0.00,29.52,32.67,35.36,13.54,46.79,1011.26,2000.97,2368.65,2311.65,2638.75,600.09,580.32,26.29,0000 0000 0000 0000 000000
2018-04-28 07:58:14,0.10,3.05,0.00,29.48,32.67,35.37,13.55,46.90,1011.27,2000.98,2367.22,2310.56,2637.50,599.63,580.02,26.34,0000 0000 0000 0000 000000
2018-04-28 08:03:16,0.09,3.06,0.00,29.44,32.66,35.36,13.58,46.92,1011.40,2000.96,2365.98,2309.58,2636.34,600.46,580.81,26.39,0000 0000 0000 0000 000000
2018-04-28 08:08:17,0.11,3.06,0.00,29.41,32.65,35.34,13.54,46.82,1011.70,2000.96,2364.55,2308.54,2635.10,600.26,580.76,26.44,0000 0000 0000 0000 000000
2018-04-28 08:13:19,0.11,3.07,0.00,29.40,32.65,35.35,13.57,46.76,1011.73,2000.98,2363.00,2307.47,2633.82,600.16,580.79,26.49,0000 0000 0000 0000 000000
2018-04-28 08:18:20,0.09,3.07,0.00,29.38,32.63,35.35,13.48,46.85,1011.74,2000.94,2361.70,2306.51,2632.65,599.40,580.09,26.55,0000 0000 0000 0000 000000
2018-04-28 08:23:22,0.08,3.08,0.00,29.31,32.62,35.33,13.56,46.87,1011.97,2000.98,2360.49,2305.71,2631.73,600.18,581.11,26.60,0000 0000 0000 0000 000000
2018-04-28 08:28:23,0.09,3.08,0.00,29.29,32.61,35.31,13.55,46.73,1012.21,2000.99,2359.23,2304.83,2630.57,600.36,581.45,26.65,0000 0000 0000 0000 000000
2018-04-28 08:33:24,0.08,3.09,0.00,29.25,32.60,35.34,13.59,46.81,1012.22,2000.99,2357.93,2303.93,2629.48,599.46,580.71,26.70,0000 0000 0000 0000 000000
2018-04-28 08:38:26,0.09,3.09,0.00,29.20,32.58,35.31,13.59,46.84,1012.22,2000.99,2356.68,2303.03,2628.47,599.87,581.13,26.75,0000 0000 0000 0000 000000
2018-04-28 08:43:27,0.09,3.10,0.00,29.16,32.56,35.33,13.60,46.85,1012.22,2000.99,2355.35,2302.09,2627.23,600.33,581.72,26.80,0000 0000 0000 0000 000000
2018-04-28 08:48:28,0.09,3.10,0.00,29.11,32.55,35.36,13.52,46.92,1012.23,2000.99,2354.08,2301.17,2626.20,599.42,580.87,26.85,0000 0000 0000 0000 000000
2018-04-28 08:53:29,0.10,3.11,0.00,29.07,32.52,35.45,13.62,46.78,1012.31,2001.00,2352.76,2300.18,2625.08,600.42,582.01,26.90,0000 0000 0000 0000 000000
2018-04-28 08:58:31,0.09,3.11,0.00,29.05,32.50,35.47,13.64,46.85,1012.54,2001.01,2351.58,2299.37,2624.05,599.71,581.42,26.95,0000 0000 0000 0000 000000
2018-04-28 09:03:32,0.09,3.11,0.00,28.99,32.48,35.43,13.64,46.98,1012.60,2001.06,2350.49,2298.60,2623.11,600.13,582.03,27.00,0000 0000 0000 0000 000000
2018-04-28 09:08:33,0.09,3.12,0.00,28.92,32.45,35.42,13.63,46.82,1012.68,2001.16,2349.14,2297.70,2622.14,600.67,582.70,27.05,0000 0000 0000 0000 000000
2018-04-28 09:13:35,0.10,3.13,0.00,28.88,32.43,35.37,13.59,46.87,1012.70,2001.49,2348.02,2296.92,2621.23,600.40,582.58,27.10,0000 0000 0000 0000 000000
2018-04-28 09:18:35,0.13,3.13,0.00,28.83,32.41,35.34,13.64,46.94,1012.71,2001.84,2346.79,2296.06,2620.23,600.01,582.38,27.15,0000 0000 0000 0000 000000
2018-04-28 09:23:37,0.10,3.14,0.00,28.77,32.37,35.29,13.61,47.02,1012.71,2001.95,2345.62,2295.24,2619.26,599.49,581.91,27.20,0000 0000 0000 0000 000000
2018-04-28 09:28:38,0.09,3.14,0.00,28.71,32.35,35.26,13.55,47.01,1012.71,2001.99,2344.54,2294.44,2618.31,599.65,582.11,27.25,0000 0000 0000 0000 000000
2018-04-28 09:33:39,0.09,3.15,0.00,28.66,32.31,35.20,13.69,46.92,1012.71,2001.99,2343.44,2293.52,2617.31,600.28,582.81,27.30,0000 0000 0000 0000 000000
2018-04-28 09:38:41,0.09,3.15,0.00,28.61,32.28,35.16,13.61,47.05,1012.71,2001.99,2342.26,2292.52,2616.18,599.68,582.39,27.35,0000 0000 0000 0000 000000
2018-04-28 09:43:42,0.08,3.16,0.00,28.55,32.25,35.13,13.66,47.06,1012.71,2002.00,2340.94,2291.73,2615.05,600.23,583.09,27.40,0000 0000 0000 0000 000000
2018-04-28 09:48:43,0.07,3.16,0.00,28.51,32.21,35.08,13.63,47.05,1012.72,2002.07,2339.92,2290.96,2614.15,599.57,582.47,27.45,0000 0000 0000 0000 000000
2018-04-28 09:53:44,0.10,3.17,0.00,28.47,32.18,35.07,13.63,46.97,1012.75,2002.22,2338.93,2290.14,2613.26,599.68,582.53,27.50,0000 0000 0000 0000 000000
2018-04-28 09:58:45,0.11,3.17,0.00,28.42,32.14,35.02,13.58,47.05,1012.92,2002.39,2337.91,2289.42,2612.42,599.94,583.14,27.55,0000 0000 0000 0000 000000
2018-04-28 10:03:47,0.12,3.18,0.00,28.36,32.11,34.98,13.59,46.97,1013.14,2002.67,2336.85,2288.63,2611.47,600.07,583.53,27.60,0000 0000 0000 0000 000000
2018-04-28 10:08:48,0.07,3.18,0.00,28.32,32.07,34.94,13.64,46.93,1013.19,2002.95,2335.94,2287.97,2610.52,599.66,583.27,27.65,0000 0000 0000 0000 000000
2018-04-28 10:13:49,0.07,3.19,0.00,28.28,32.03,34.88,13.60,46.86,1013.20,2002.99,2335.07,2287.21,2609.87,600.08,583.67,27.70,0000 0000 0000 0000 000000
2018-04-28 10:18:51,0.06,3.19,0.00,28.22,31.99,34.84,13.59,46.83,1013.21,2002.99,2334.18,2286.67,2609.04,599.46,583.25,27.75,0000 0000 0000 0000 000000
2018-04-28 10:23:52,0.06,3.19,0.00,28.18,31.95,34.82,13.62,46.98,1013.24,2003.00,2333.43,2286.02,2608.39,599.82,583.64,27.80,0000 0000 0000 0000 000000
2018-04-28 10:28:53,0.10,3.20,0.00,28.14,31.91,34.79,13.66,46.88,1013.34,2003.15,2332.44,2285.38,2607.68,600.14,584.11,27.85,0000 0000 0000 0000 000000
2018-04-28 10:33:54,0.05,3.20,0.00,28.10,31.87,34.79,13.66,46.93,1013.36,2003.38,2331.69,2284.98,2607.01,600.27,584.40,27.90,0000 0000 0000 0000 000000
2018-04-28 10:38:55,0.13,3.21,0.00,28.04,31.83,34.76,13.71,47.00,1013.44,2003.89,2330.87,2284.28,2606.29,599.98,584.22,27.95,0000 0000 0000 0000 000000
2018-04-28 10:43:56,0.04,3.21,0.00,27.99,31.79,34.73,13.69,46.88,1013.46,2003.97,2330.02,2283.94,2605.79,600.31,584.57,28.00,0000 0000 0000 0000 000000
2018-04-28 10:48:57,0.08,3.21,0.00,27.97,31.75,34.68,13.62,46.86,1013.55,2003.99,2329.14,2283.16,2605.01,600.00,584.45,28.05,0000 0000 0000 0000 000000
2018-04-28 10:53:58,0.06,3.22,0.00,27.94,31.71,34.65,13.68,46.92,1013.41,2003.99,2328.20,2282.82,2604.16,600.26,584.66,28.10,0000 0000 0000 0000 000000
2018-04-28 10:59:00,0.06,3.22,0.00,27.88,31.67,34.61,13.68,47.00,1013.38,2004.01,2327.43,2282.08,2603.74,599.78,584.29,28.15,0000 0000 0000 0000 000000
2018-04-28 11:04:01,0.07,3.22,0.00,27.82,31.62,34.54,13.70,47.00,1013.33,2004.18,2326.68,2281.74,2603.04,600.09,584.65,28.20,0000 0000 0000 0000 000000
2018-04-28 11:09:03,0.12,3.23,0.00,27.75,31.58,34.50,13.73,47.02,1013.29,2004.80,2325.95,2281.05,2602.53,600.31,584.97,28.25,0000 0000 0000 0000 000000
2018-04-28 11:14:04,-0.03,3.23,0.00,27.68,31.54,34.45,13.67,46.93,1013.43,2004.96,2325.10,2282.27,2601.96,599.89,584.71,28.30,0000 0000 0000 0000 000000
2018-04-28 11:19:05,0.08,3.23,0.00,27.62,31.50,34.38,13.68,47.12,1013.51,2004.99,2324.37,2282.21,2601.18,599.68,584.77,28.35,0000 0000 0000 0000 000000
2018-04-28 11:24:07,0.05,3.23,0.00,27.58,31.45,34.35,13.67,46.98,1013.65,2004.99,2323.60,2281.88,2600.63,599.91,585.16,28.40,0000 0000 0000 0000 000000
2018-04-28 11:29:08,0.06,3.24,0.00,27.53,31.41,34.30,13.65,46.92,1013.66,2005.09,2322.92,2281.10,2600.01,599.99,585.35,28.45,0000 0000 0000 0000 000000
2018-04-28 11:34:09,0.11,3.24,0.00,27.45,31.36,34.25,13.66,47.00,1013.65,2005.59,2322.11,2280.98,2599.48,599.66,585.20,28.50,0000 0000 0000 0000 000000
2018-04-28 11:39:11,0.08,3.25,0.00,27.39,31.32,34.17,13.75,47.14,1013.62,2005.96,2321.40,2280.34,2598.99,600.31,585.90,28.55,0000 0000 0000 0000 000000
2018-04-28 11:44:12,0.04,3.25,0.00,27.32,31.27,34.13,13.78,47.04,1013.67,2005.99,2320.73,2280.00,2598.35,599.95,585.79,28.60,0000 0000 0000 0000 000000
2018-04-28 11:49:13,0.05,3.25,0.00,27.26,31.22,34.12,13.68,47.15,1013.60,2006.00,2319.98,2279.57,2597.90,599.89,585.74,28.65,0000 0000 0000 0000 000000
2018-04-28 11:54:15,0.07,3.26,0.00,27.18,31.16,34.05,13.75,46.98,1013.62,2006.10,2319.17,2279.01,2597.12,600.05,586.09,28.70,0000 0000 0000 0000 000000
2018-04-28 11:59:16,0.11,3.26,0.00,27.09,31.11,33.96,13.71,47.09,1013.68,2006.74,2318.63,2278.77,2596.88,599.92,586.14,28.75,0000 0000 0000 0000 000000
2018-04-28 12:04:17,0.07,3.27,0.00,27.00,31.05,33.85,13.73,46.99,1013.69,2006.98,2317.89,2278.06,2596.10,600.24,586.61,28.80,0000 0000 0000 0000 000000
2018-04-28 12:09:19,0.04,3.27,0.00,26.92,31.00,33.76,13.72,46.87,1013.69,2006.99,2317.05,2277.93,2595.75,600.10,586.64,28.85,0000 0000 0000 0000 000000
2018-04-28 12:14:20,0.08,3.27,0.00,26.86,30.94,33.71,13.69,47.02,1013.69,2007.02,2316.28,2277.13,2595.03,599.94,586.63,28.90,0000 0000 0000 0000 000000
2018-04-28 12:19:21,0.10,3.28,0.00,26.77,30.88,33.61,13.76,47.08,1013.69,2007.50,2315.74,2277.00,2594.71,600.24,587.07,28.95,0000 0000 0000 0000 000000
2018-04-28 12:24:22,0.08,3.28,0.00,26.69,30.82,33.53,13.69,47.02,1013.69,2007.94,2315.01,2276.51,2594.03,599.85,586.83,29.00,0000 0000 0000 0000 000000
2018-04-28 12:29:23,0.04,3.28,0.00,26.62,30.75,33.45,13.77,47.01,1013.69,2007.99,2314.25,2276.02,2593.71,600.22,587.29,29.05,0000 0000 0000 0000 000000
2018-04-28 12:34:25,0.04,3.29,0.00,26.56,30.69,33.37,13.67,47.05,1013.69,2008.00,2313.51,2275.91,2593.03,599.70,586.92,29.10,0000 0000 0000 0000 000000
2018-04-28 12:39:26,0.13,3.29,0.00,26.50,30.62,33.32,13.76,47.01,1013.69,2008.46,2312.92,2275.19,2592.72,599.95,587.34,29.15,0000 0000 0000 0000 000000
2018-04-28 12:44:27,0.07,3.30,0.00,26.43,30.56,33.23,13.71,46.96,1013.71,2008.94,2312.09,2275.00,2592.04,599.98,587.46,29.20,0000 0000 0000 0000 000000
2018-04-28 12:49:28,0.05,3.30,0.00,26.37,30.49,33.16,13.75,47.04,1013.73,2008.99,2311.51,2274.70,2591.77,600.18,587.81,29.25,0000 0000 0000 0000 000000
2018-04-28 12:54:30,0.05,3.30,0.00,26.30,30.43,33.07,13.71,47.02,1013.82,2009.05,2310.88,2274.04,2591.05,599.92,587.61,29.30,0000 0000 0000 0000 000000